Regional Weather Roundup
Issued by NWS

Home | Current Version | Previous Version | Graphics & Text | Print | Product List | Glossary On
Versions: 1 2 3 4 5 6 7 8 9 10 11 12 13 14 15 16 17 18 19 20 21 22 23 24 25 26 27 28 29 30 31 32 33 34 35 36 37 38 39 40 41 42 43 44 45 46 47 48 49 50
000
ASUS45 KTFX 271404
RWRMT
MONTANA HOURLY WEATHER ROUNDUP
NATIONAL WEATHER SERVICE GREAT FALLS MT
704 AM MST THU NOV 27 2014

NOTE: "FAIR" INDICATES FEW OR NO CLOUDS BELOW 12000 FEET WITH NO
SIGNIFICANT WEATHER AND/OR OBSTRUCTIONS TO VISIBILITY.

* THESE STATIONS ARE NOT UNDER NWS QUALITY CONTROL. THEY DO NOT
   REPORT WEATHER SUCH AS PRECIPITATION OR FOG.

MTZ001>007-043-271500-
WEST OF THE DIVIDE
CITY           SKY/WX    TMP DP  RH WIND       PRES   REMARKS
KALISPELL      LGT RAIN  34  34 100 S5        29.87S WCI  29
MISSOULA       FOG       30  28  92 CALM      29.98F VSB 1
BUTTE          CLOUDY    46  28  50 N/A       30.04F
MULLAN PASS    LGT RAIN  36  32  85 SW15G26   29.92F WCI  27
* ESSEX        N/A       34  34 100 N/A        N/A
* LINCOLN      N/A       35  33  92 E2         N/A
* LOOKOUT PASS N/A       43  35  73 SE4G12     N/A
* POLSON       N/A       40  35  82 S3G8       N/A
* RONAN APT    MOCLDY    45  34  65 S8         N/A
* SEELEY LAKE  N/A       32  31  96 S1         N/A
* THOMP F APT  CLOUDY    32  28  85 NE2        N/A
* YAAK HILL    N/A       35  33  92 NE4        N/A
$$

MTZ008-052>055-271500-
SOUTHWEST MONTANA
CITY           SKY/WX    TMP DP  RH WIND       PRES   REMARKS
BOZEMAN        CLOUDY    34  28  79 SE8       30.00S WCI  27
DILLON         CLOUDY    45  25  45 S15       30.06F
* W YELLOWSTON CLOUDY    34  28  79 SW4G12     N/A
* ENNIS APT    CLOUDY    41  28  60 SE14G29    N/A
* THREE FORKS  CLOUDY    25   3  38 N/A        N/A
* BOULDER HILL N/A       42  21  43 SE9G18     N/A
* MONIDA PASS  N/A       30  30 100 E15G20     N/A   WCI  19
* RAYNOLDS PAS N/A       33  19  56 S12        N/A   WCI  24
* WHITEHALL    N/A       51  23  33 W15G27     N/A
* WISE RIVER   N/A       38  26  62 SE2G9      N/A
$$

MTZ009>010-012-014-046-048-049-054-271500-
EAST SLOPES AND CENTRAL MONTANA
CITY           SKY/WX    TMP DP  RH WIND       PRES   REMARKS
CUT BANK       FOG       23  21  92 SE8       29.73F VSB M1/4 WCI  14
GREAT FALLS    FAIR      41  30  65 SW15      29.81F
HELENA         FOG       23  21  92 SE3       29.93F VSB M1/4
MALMSTROM AFB  PTCLDY    37  32  82 S14       29.82F WCI  28
* DEARBORN     N/A       54  29  38 SE10G22    N/A
* EAST GLACIER N/A       38  35  89 W33G43     N/A   WCI  25
* MONARCH      N/A       42  22  45 SW10G20    N/A
* PENDROY      N/A       46  28  50 S2G13      N/A
* ROGERS PASS  N/A       40  28  62 SE20G32    N/A   WCI  30
* SAINT MARY   N/A       40  36  86 SW15G32    N/A   WCI  32
* SWEET GRASS  N/A       25  25 100 S19G24     N/A   WCI  11
$$

MTZ011-013-016-021-035-040-045-047-050-051-271500-
NORTH CENTRAL MONTANA
CITY           SKY/WX    TMP DP  RH WIND       PRES   REMARKS
HAVRE          FRZ RAIN  30  28  92 E7        29.80F WCI  23
LEWISTOWN      CLOUDY    43  30  60 SW16      29.86F
* N BAR RANCH  CLEAR     39  30  70 VRB3      29.86F
* CHESTER      N/A       28  26  92 SE1        N/A
* DENTON       N/A       33  26  75 S11        N/A   WCI  24
* GEYSER       N/A       42  27  55 SW24       N/A
* JUDITH GAP   N/A       32  32 100 SE12G17    N/A   WCI  23
* LOMA         N/A       30  28  92 NE11       N/A   WCI  21
$$

MTZ017>020-022>027-061-062-271500-
NORTHEAST MONTANA
CITY           SKY/WX    TMP DP  RH WIND       PRES   REMARKS
GLASGOW        LGT SNOW  21  18  88 SE24      29.94F WCI   4
GLENDIVE       CLOUDY    21  19  92 SE6       30.06F WCI  13
JORDAN         MOCLDY    28  25  89 SE10      29.92F WCI  19
SIDNEY         PTCLDY    19  14  81 CALM      30.14F
WOLF POINT     CLOUDY    18  12  77 E14       30.05F WCI   4
* BEAVER HILL  N/A       22  17  81 SE17G24    N/A   WCI   8
* CIRCLE       N/A       26  24  92 E9         N/A   WCI  17
* LINDSAY DVD  N/A       21  20  96 SE17       N/A   WCI   7
* NAVAJO       N/A       10   7  88 SE3        N/A
* SACO         N/A       22  20  92 E16G21     N/A   WCI   8
$$

MTZ028>042-056>058-271500-
SOUTHCENTRAL AND SOUTHEAST MONTANA
CITY           SKY/WX    TMP DP  RH WIND       PRES   REMARKS
BAKER          CLOUDY    21  18  88 SE18      30.05F WCI   6
BILLINGS       CLOUDY    30  27  89 SW12      29.93F WCI  20
LIVINGSTON     MOCLDY    46  30  54 SW31G41   29.94F
MILES CITY     CLOUDY    27  21  78 SE16      29.97F WCI  15
* LAUREL APT   CLOUDY    28  21  75 N/A        N/A
* ALZADA       N/A       20  18  92 E8         N/A   WCI  10
* HYSHAM       N/A       33  26  75 W7G12      N/A   WCI  27
* LAME DEER    N/A       33  30  89 S7         N/A   WCI  27
* REED POINT   N/A       25  25 100 W1         N/A
* ROSCOE HILL  N/A       49  12  22 S23G35     N/A
$$

REGIONAL REPORTS...DAKOTAS
CITY           SKY/WX    TMP DP  RH WIND       PRES   REMARKS
WILLISTON      CLOUDY    12   9  88 SE5       30.15F WCI   4
DICKINSON      CLOUDY    16  12  84 S14       30.12F WCI   2
BEACH          CLOUDY    19  18  96 SE14      30.09F WCI   5
CROSBY         PTCLDY    10   7  88 S7        30.17F WCI  -1
BISMARCK       PTCLDY    -9 -15  74 E8        30.35F WCI -25
GRAND FORKS    PTCLDY   -11 -17  74 S6        30.51S WCI -25
FARGO          PTCLDY    -9 -17  67 S5        30.53S WCI -21
BUFFALO SD     CLOUDY    19  16  88 SE15      30.04F WCI   5
RAPID CITY     CLOUDY    19  18  96 SE12      30.11F WCI   6
$$

REGIONAL REPORTS...WYOMING/IDAHO/WASHINGTON
CITY           SKY/WX    TMP DP  RH WIND       PRES   REMARKS
GILLETTE       CLOUDY    39  28  65 SW18      30.01S WCI  30
SHERIDAN       CLOUDY    23  19  85 SE5       29.99F WCI  16
CODY           MOCLDY    46  27  48 SW17      30.00S
YELLOWSTONE LA CLOUDY    28  27  96 CALM      30.21S
SALMON         CLOUDY    32  30  92 SE6       30.14F WCI  26
MULLAN PASS    LGT RAIN  36  32  85 SW15G26   29.92S WCI  27
SAND POINT     FOG       36  36 100 CALM      29.87F VSB 3
SPOKANE        CLOUDY    48  39  71 SW17      29.86R
$$

REGIONAL REPORTS...SASKATCHEWAN
CITY           SKY/WX    TMP DP  RH WIND       PRES   REMARKS
SWIFT CURRENT  LGT SNOW  21  19  92 SE22G30   29.91F VSB 1 1/2 WCI   5

$$




USA.gov is the U.S. government's official web portal to all federal, state and local government web resources and services.